Time,TemperatureF,DewpointF,PressureIn,WindDirection,WindDirectionDegrees,WindSpeedMPH,WindSpeedGustMPH,Humidity,HourlyPrecipIn,Conditions,Clouds,dailyrainin,SoftwareType,DateUTC
2013-04-12 00:00:00,43.3,33.1,29.99,East,97,0.0,2.0,67,0.00,,---,0.00,VWS V14.01,2013-04-12 06:00:00,
2013-04-12 00:05:00,43.2,32.6,29.98,East,97,0.0,0.0,66,0.00,,---,0.00,VWS V14.01,2013-04-12 06:05:00,
2013-04-12 00:10:00,42.8,32.6,29.99,East,98,0.0,0.0,67,0.00,,---,0.00,VWS V14.01,2013-04-12 06:10:00,
2013-04-12 00:15:00,42.3,32.5,29.99,East,97,0.0,1.0,68,0.00,,---,0.00,VWS V14.01,2013-04-12 06:15:00,
2013-04-12 00:20:00,42.0,32.6,29.99,ESE,108,0.0,1.0,69,0.00,,---,0.00,VWS V14.01,2013-04-12 06:20:00,
2013-04-12 00:25:00,41.6,32.2,29.99,ESE,107,0.0,0.0,69,0.00,,---,0.00,VWS V14.01,2013-04-12 06:25:00,
2013-04-12 00:30:00,41.3,31.5,29.99,ESE,108,0.0,0.0,68,0.00,,---,0.00,VWS V14.01,2013-04-12 06:30:00,
2013-04-12 00:35:00,40.9,31.5,30.00,NW,315,0.0,1.0,69,0.00,,---,0.00,VWS V14.01,2013-04-12 06:35:00,
2013-04-12 00:40:00,40.7,31.7,30.00,WNW,283,0.0,1.0,70,0.00,,---,0.00,VWS V14.01,2013-04-12 06:40:00,
2013-04-12 00:45:00,40.6,32.0,30.00,North,356,0.0,1.0,71,0.00,,---,0.00,VWS V14.01,2013-04-12 06:45:00,
2013-04-12 00:50:00,40.5,31.5,30.00,North,355,0.0,1.0,70,0.00,,---,0.00,VWS V14.01,2013-04-12 06:50:00,
2013-04-12 00:55:00,40.2,31.6,30.00,North,355,0.0,1.0,71,0.00,,---,0.00,VWS V14.01,2013-04-12 06:55:00,
2013-04-12 01:00:00,40.0,31.4,30.00,North,356,0.0,1.0,71,0.00,,---,0.00,VWS V14.01,2013-04-12 07:00:00,
2013-04-12 01:05:00,39.8,30.8,30.00,ESE,115,1.0,2.0,70,0.00,,---,0.00,VWS V14.01,2013-04-12 07:05:00,
2013-04-12 01:10:00,39.3,30.7,30.01,NW,315,1.0,2.0,71,0.00,,---,0.00,VWS V14.01,2013-04-12 07:10:00,
2013-04-12 01:15:00,39.5,31.6,30.01,NW,312,0.0,1.0,73,0.00,,---,0.00,VWS V14.01,2013-04-12 07:15:00,
2013-04-12 01:20:00,39.7,31.8,30.01,North,10,0.0,1.0,73,0.00,,---,0.00,VWS V14.01,2013-04-12 07:20:00,
2013-04-12 01:25:00,40.2,31.9,30.01,ENE,58,0.0,2.0,72,0.00,,---,0.00,VWS V14.01,2013-04-12 07:25:00,
2013-04-12 01:30:00,40.1,31.5,30.01,ENE,58,0.0,2.0,71,0.00,,---,0.00,VWS V14.01,2013-04-12 07:30:00,
2013-04-12 01:35:00,40.0,31.7,30.01,ENE,71,0.0,1.0,72,0.00,,---,0.00,VWS V14.01,2013-04-12 07:35:00,
2013-04-12 01:40:00,41.0,32.0,30.01,ENE,70,0.0,1.0,70,0.00,,---,0.00,VWS V14.01,2013-04-12 07:40:00,
2013-04-12 01:45:00,41.9,32.1,30.01,ENE,71,0.0,1.0,68,0.00,,---,0.00,VWS V14.01,2013-04-12 07:45:00,
2013-04-12 01:50:00,42.4,32.2,30.01,ENE,71,0.0,1.0,67,0.00,,---,0.00,VWS V14.01,2013-04-12 07:50:00,
2013-04-12 01:55:00,42.7,32.2,30.01,SE,124,0.0,2.0,66,0.00,,---,0.00,VWS V14.01,2013-04-12 07:55:00,
2013-04-12 02:00:00,42.3,32.1,30.01,SE,131,0.0,2.0,67,0.00,,---,0.00,VWS V14.01,2013-04-12 08:00:00,
2013-04-12 02:05:00,41.9,32.1,30.01,SE,131,0.0,1.0,68,0.00,,---,0.00,VWS V14.01,2013-04-12 08:05:00,
2013-04-12 02:10:00,41.5,32.5,30.01,WSW,253,1.0,2.0,70,0.00,,---,0.00,VWS V14.01,2013-04-12 08:10:00,
2013-04-12 02:15:00,41.6,33.3,30.01,WNW,302,1.0,3.0,72,0.00,,---,0.00,VWS V14.01,2013-04-12 08:15:00,
2013-04-12 02:20:00,41.8,33.1,30.01,West,277,0.0,3.0,71,0.00,,---,0.00,VWS V14.01,2013-04-12 08:20:00,
2013-04-12 02:25:00,42.0,32.9,30.01,West,278,0.0,0.0,70,0.00,,---,0.00,VWS V14.01,2013-04-12 08:25:00,
2013-04-12 02:30:00,42.1,32.7,30.00,West,277,0.0,0.0,69,0.00,,---,0.00,VWS V14.01,2013-04-12 08:30:00,
2013-04-12 02:35:00,42.0,32.6,30.00,West,277,0.0,0.0,69,0.00,,---,0.00,VWS V14.01,2013-04-12 08:35:00,
2013-04-12 02:40:00,41.9,32.5,30.00,West,277,0.0,1.0,69,0.00,,---,0.00,VWS V14.01,2013-04-12 08:40:00,
2013-04-12 02:45:00,41.7,32.7,30.00,West,277,0.0,0.0,70,0.00,,---,0.00,VWS V14.01,2013-04-12 08:45:00,
2013-04-12 02:50:00,41.6,32.6,30.01,West,277,0.0,0.0,70,0.00,,---,0.00,VWS V14.01,2013-04-12 08:50:00,
2013-04-12 02:55:00,41.4,32.4,30.01,West,277,0.0,0.0,70,0.00,,---,0.00,VWS V14.01,2013-04-12 08:55:00,
2013-04-12 03:00:00,41.2,32.5,30.01,West,277,0.0,0.0,71,0.00,,---,0.00,VWS V14.01,2013-04-12 09:00:00,
2013-04-12 03:05:00,41.1,32.8,30.01,West,277,0.0,0.0,72,0.00,,---,0.00,VWS V14.01,2013-04-12 09:05:00,
2013-04-12 03:10:00,41.0,32.7,30.01,West,277,0.0,0.0,72,0.00,,---,0.00,VWS V14.01,2013-04-12 09:10:00,
2013-04-12 03:15:00,40.9,32.6,30.01,NNW,347,1.0,1.0,72,0.00,,---,0.00,VWS V14.01,2013-04-12 09:15:00,
2013-04-12 03:20:00,41.1,33.1,30.00,NE,56,0.0,2.0,73,0.00,,---,0.00,VWS V14.01,2013-04-12 09:20:00,
2013-04-12 03:25:00,41.2,32.9,30.00,NE,56,0.0,0.0,72,0.00,,---,0.00,VWS V14.01,2013-04-12 09:25:00,
2013-04-12 03:30:00,41.2,32.9,30.00,NE,56,0.0,1.0,72,0.00,,---,0.00,VWS V14.01,2013-04-12 09:30:00,
2013-04-12 03:35:00,41.2,32.9,30.00,NE,56,0.0,1.0,72,0.00,,---,0.00,VWS V14.01,2013-04-12 09:35:00,
2013-04-12 03:40:00,41.5,33.2,30.00,NE,56,0.0,1.0,72,0.00,,---,0.00,VWS V14.01,2013-04-12 09:40:00,
2013-04-12 03:45:00,41.6,33.3,30.00,NE,54,0.0,1.0,72,0.00,,---,0.00,VWS V14.01,2013-04-12 09:45:00,
2013-04-12 03:50:00,41.7,33.3,30.00,ENE,70,0.0,1.0,72,0.00,,---,0.00,VWS V14.01,2013-04-12 09:50:00,
2013-04-12 03:55:00,41.7,33.0,30.00,ENE,71,0.0,1.0,71,0.00,,---,0.00,VWS V14.01,2013-04-12 09:55:00,
2013-04-12 04:00:00,41.5,32.8,30.00,ENE,71,0.0,1.0,71,0.00,,---,0.00,VWS V14.01,2013-04-12 10:00:00,
2013-04-12 04:05:00,41.3,33.0,30.00,ENE,71,0.0,0.0,72,0.00,,---,0.00,VWS V14.01,2013-04-12 10:05:00,
2013-04-12 04:10:00,41.0,32.7,30.00,ENE,71,0.0,0.0,72,0.00,,---,0.00,VWS V14.01,2013-04-12 10:10:00,
2013-04-12 04:15:00,40.8,32.5,30.00,ENE,71,0.0,1.0,72,0.00,,---,0.00,VWS V14.01,2013-04-12 10:15:00,
2013-04-12 04:20:00,40.6,32.3,30.00,ENE,71,0.0,1.0,72,0.00,,---,0.00,VWS V14.01,2013-04-12 10:20:00,
2013-04-12 04:25:00,40.4,32.4,30.00,ENE,71,0.0,0.0,73,0.00,,---,0.00,VWS V14.01,2013-04-12 10:25:00,
2013-04-12 04:30:00,40.2,32.2,29.99,ENE,70,0.0,0.0,73,0.00,,---,0.00,VWS V14.01,2013-04-12 10:30:00,
2013-04-12 04:35:00,40.0,32.1,29.99,ENE,71,0.0,0.0,73,0.00,,---,0.00,VWS V14.01,2013-04-12 10:35:00,
2013-04-12 04:40:00,39.9,32.3,30.00,ENE,71,0.0,0.0,74,0.00,,---,0.00,VWS V14.01,2013-04-12 10:40:00,
2013-04-12 04:45:00,39.9,32.3,30.00,ENE,70,0.0,0.0,74,0.00,,---,0.00,VWS V14.01,2013-04-12 10:45:00,
2013-04-12 04:50:00,39.9,32.3,30.00,ENE,71,0.0,0.0,74,0.00,,---,0.00,VWS V14.01,2013-04-12 10:50:00,
2013-04-12 04:55:00,40.0,32.4,29.99,ENE,71,0.0,0.0,74,0.00,,---,0.00,VWS V14.01,2013-04-12 10:55:00,
2013-04-12 05:00:00,40.0,32.4,29.99,ENE,70,0.0,0.0,74,0.00,,---,0.00,VWS V14.01,2013-04-12 11:00:00,
2013-04-12 05:05:00,40.0,32.4,29.99,ENE,70,0.0,0.0,74,0.00,,---,0.00,VWS V14.01,2013-04-12 11:05:00,
2013-04-12 05:10:00,40.0,32.4,29.99,ENE,71,0.0,0.0,74,0.00,,---,0.00,VWS V14.01,2013-04-12 11:10:00,
2013-04-12 05:15:00,40.0,32.7,29.99,ENE,71,0.0,0.0,75,0.00,,---,0.00,VWS V14.01,2013-04-12 11:15:00,
2013-04-12 05:20:00,40.0,32.7,29.99,ENE,71,0.0,0.0,75,0.00,,---,0.00,VWS V14.01,2013-04-12 11:20:00,
2013-04-12 05:25:00,40.0,32.4,29.99,ENE,70,0.0,0.0,74,0.00,,---,0.00,VWS V14.01,2013-04-12 11:25:00,
2013-04-12 05:30:00,40.1,32.8,29.99,ENE,71,0.0,1.0,75,0.00,,---,0.00,VWS V14.01,2013-04-12 11:30:00,
2013-04-12 05:35:00,40.2,32.6,30.00,ENE,71,0.0,0.0,74,0.00,,---,0.00,VWS V14.01,2013-04-12 11:35:00,
2013-04-12 05:40:00,40.2,32.6,30.00,ENE,71,0.0,0.0,74,0.00,,---,0.00,VWS V14.01,2013-04-12 11:40:00,
2013-04-12 05:45:00,40.2,32.6,30.00,ENE,71,0.0,0.0,74,0.00,,---,0.00,VWS V14.01,2013-04-12 11:45:00,
2013-04-12 05:50:00,40.2,32.6,30.00,ENE,71,0.0,0.0,74,0.00,,---,0.00,VWS V14.01,2013-04-12 11:50:00,
2013-04-12 05:55:00,40.2,32.6,30.00,ENE,70,0.0,0.0,74,0.00,,---,0.00,VWS V14.01,2013-04-12 11:55:00,
2013-04-12 06:00:00,40.2,32.6,30.00,ENE,71,0.0,0.0,74,0.00,,---,0.00,VWS V14.01,2013-04-12 12:00:00,
2013-04-12 06:05:00,40.1,32.5,30.00,ENE,71,0.0,0.0,74,0.00,,---,0.00,VWS V14.01,2013-04-12 12:05:00,
2013-04-12 06:10:00,40.0,32.4,29.99,ENE,71,0.0,0.0,74,0.00,,---,0.00,VWS V14.01,2013-04-12 12:10:00,
2013-04-12 06:15:00,39.9,32.3,30.00,ENE,71,0.0,0.0,74,0.00,,---,0.00,VWS V14.01,2013-04-12 12:15:00,
2013-04-12 06:20:00,39.8,32.2,29.99,ENE,71,0.0,0.0,74,0.00,,---,0.00,VWS V14.01,2013-04-12 12:20:00,
2013-04-12 06:25:00,39.6,32.0,29.99,ENE,70,0.0,0.0,74,0.00,,---,0.00,VWS V14.01,2013-04-12 12:25:00,
2013-04-12 06:30:00,39.5,31.9,30.00,ENE,71,0.0,0.0,74,0.00,,---,0.00,VWS V14.01,2013-04-12 12:30:00,
2013-04-12 06:35:00,39.2,32.0,30.00,ENE,71,0.0,0.0,75,0.00,,---,0.00,VWS V14.01,2013-04-12 12:35:00,
2013-04-12 06:40:00,38.8,31.6,30.00,ENE,71,0.0,0.0,75,0.00,,---,0.00,VWS V14.01,2013-04-12 12:40:00,
2013-04-12 06:45:00,38.4,31.5,30.00,ENE,71,0.0,0.0,76,0.00,,---,0.00,VWS V14.01,2013-04-12 12:45:00,
2013-04-12 06:50:00,38.1,31.2,30.00,ENE,71,0.0,0.0,76,0.00,,---,0.00,VWS V14.01,2013-04-12 12:50:00,
2013-04-12 06:55:00,37.6,31.1,30.00,ENE,71,0.0,0.0,77,0.00,,---,0.00,VWS V14.01,2013-04-12 12:55:00,
2013-04-12 07:00:00,37.4,31.2,30.00,ENE,71,0.0,0.0,78,0.00,,---,0.00,VWS V14.01,2013-04-12 13:00:00,
2013-04-12 07:05:00,37.3,31.1,30.01,ENE,71,1.0,1.0,78,0.00,,---,0.00,VWS V14.01,2013-04-12 13:05:00,
2013-04-12 07:10:00,37.4,31.5,30.01,ENE,71,1.0,1.0,79,0.00,,---,0.00,VWS V14.01,2013-04-12 13:10:00,
2013-04-12 07:15:00,38.0,31.8,30.01,ENE,70,0.0,1.0,78,0.00,,---,0.00,VWS V14.01,2013-04-12 13:15:00,
2013-04-12 07:20:00,38.5,31.6,30.01,NE,43,0.0,2.0,76,0.00,,---,0.00,VWS V14.01,2013-04-12 13:20:00,
2013-04-12 07:25:00,38.9,32.0,30.01,NE,41,0.0,2.0,76,0.00,,---,0.00,VWS V14.01,2013-04-12 13:25:00,
2013-04-12 07:30:00,39.3,32.0,30.01,ENE,60,1.0,2.0,75,0.00,,---,0.00,VWS V14.01,2013-04-12 13:30:00,
2013-04-12 07:35:00,40.0,32.1,30.01,ENE,60,0.0,1.0,73,0.00,,---,0.00,VWS V14.01,2013-04-12 13:35:00,
2013-04-12 07:40:00,41.1,32.4,30.02,NE,55,0.0,4.0,71,0.00,,---,0.00,VWS V14.01,2013-04-12 13:40:00,
2013-04-12 07:45:00,42.0,32.6,30.02,NE,46,2.0,3.0,69,0.00,,---,0.00,VWS V14.01,2013-04-12 13:45:00,
2013-04-12 07:50:00,42.3,32.5,30.02,NE,45,0.0,3.0,68,0.00,,---,0.00,VWS V14.01,2013-04-12 13:50:00,
2013-04-12 07:55:00,42.7,32.5,30.02,NE,42,2.0,4.0,67,0.00,,---,0.00,VWS V14.01,2013-04-12 13:55:00,
2013-04-12 08:00:00,43.1,32.5,30.01,ENE,60,2.0,4.0,66,0.00,,---,0.00,VWS V14.01,2013-04-12 14:00:00,
2013-04-12 08:05:00,43.2,32.6,30.02,East,79,0.0,4.0,66,0.00,,---,0.00,VWS V14.01,2013-04-12 14:05:00,
2013-04-12 08:10:00,44.0,32.6,30.01,NE,46,1.0,4.0,64,0.00,,---,0.00,VWS V14.01,2013-04-12 14:10:00,
2013-04-12 08:15:00,44.9,33.1,30.01,ENE,64,1.0,2.0,63,0.00,,---,0.00,VWS V14.01,2013-04-12 14:15:00,
2013-04-12 08:20:00,45.4,33.2,30.01,ENE,60,1.0,2.0,62,0.00,,---,0.00,VWS V14.01,2013-04-12 14:20:00,
2013-04-12 08:25:00,46.4,33.7,30.01,ENE,71,0.0,0.0,61,0.00,,---,0.00,VWS V14.01,2013-04-12 14:25:00,
2013-04-12 08:30:00,47.4,33.4,30.01,East,84,0.0,1.0,58,0.00,,---,0.00,VWS V14.01,2013-04-12 14:30:00,
2013-04-12 08:35:00,47.4,33.4,30.01,ESE,120,2.0,3.0,58,0.00,,---,0.00,VWS V14.01,2013-04-12 14:35:00,
2013-04-12 08:40:00,48.5,34.0,30.01,East,101,0.0,3.0,57,0.00,,---,0.00,VWS V14.01,2013-04-12 14:40:00,
2013-04-12 08:45:00,49.3,33.8,30.02,NNW,336,0.0,1.0,55,0.00,,---,0.00,VWS V14.01,2013-04-12 14:45:00,
2013-04-12 08:50:00,49.6,34.1,30.01,SE,129,0.0,1.0,55,0.00,,---,0.00,VWS V14.01,2013-04-12 14:50:00,
2013-04-12 08:55:00,50.3,34.3,30.02,WSW,250,0.0,1.0,54,0.00,,---,0.00,VWS V14.01,2013-04-12 14:55:00,
2013-04-12 09:00:00,50.4,33.9,30.01,SE,136,1.0,2.0,53,0.00,,---,0.00,VWS V14.01,2013-04-12 15:00:00,
2013-04-12 09:05:00,50.6,33.6,30.02,West,273,1.0,5.0,52,0.00,,---,0.00,VWS V14.01,2013-04-12 15:05:00,
2013-04-12 09:10:00,50.9,33.4,30.02,WNW,302,0.0,5.0,51,0.00,,---,0.00,VWS V14.01,2013-04-12 15:10:00,
2013-04-12 09:15:00,51.0,33.0,30.02,SSW,212,0.0,2.0,50,0.00,,---,0.00,VWS V14.01,2013-04-12 15:15:00,
2013-04-12 09:20:00,51.0,33.0,30.01,ESE,111,0.0,3.0,50,0.00,,---,0.00,VWS V14.01,2013-04-12 15:20:00,
2013-04-12 09:25:00,51.1,32.6,30.01,East,94,0.0,3.0,49,0.00,,---,0.00,VWS V14.01,2013-04-12 15:25:00,
2013-04-12 09:30:00,52.2,32.6,30.01,SSE,149,0.0,3.0,47,0.00,,---,0.00,VWS V14.01,2013-04-12 15:30:00,
2013-04-12 09:35:00,52.9,33.2,30.01,ESE,102,0.0,4.0,47,0.00,,---,0.00,VWS V14.01,2013-04-12 15:35:00,
2013-04-12 09:40:00,53.9,33.1,30.00,ESE,102,0.0,5.0,45,0.00,,---,0.00,VWS V14.01,2013-04-12 15:40:00,
2013-04-12 09:45:00,54.7,33.2,30.00,WSW,253,2.0,4.0,44,0.00,,---,0.00,VWS V14.01,2013-04-12 15:45:00,
2013-04-12 09:50:00,54.9,32.8,30.00,ESE,103,3.0,4.0,43,0.00,,---,0.00,VWS V14.01,2013-04-12 15:50:00,
2013-04-12 09:55:00,55.1,31.8,30.00,West,266,0.0,3.0,41,0.00,,---,0.00,VWS V14.01,2013-04-12 15:55:00,
2013-04-12 10:00:00,55.5,31.6,30.00,North,5,2.0,4.0,40,0.00,,---,0.00,VWS V14.01,2013-04-12 16:00:00,
2013-04-12 10:05:00,56.1,31.5,30.00,NNE,15,0.0,4.0,39,0.00,,---,0.00,VWS V14.01,2013-04-12 16:05:00,
2013-04-12 10:10:00,56.9,31.6,30.00,WSW,250,1.0,4.0,38,0.00,,---,0.00,VWS V14.01,2013-04-12 16:10:00,
2013-04-12 10:15:00,56.9,30.9,30.00,South,173,1.0,4.0,37,0.00,,---,0.00,VWS V14.01,2013-04-12 16:15:00,
2013-04-12 10:20:00,57.2,31.2,30.00,WSW,252,0.0,5.0,37,0.00,,---,0.00,VWS V14.01,2013-04-12 16:20:00,
2013-04-12 10:25:00,57.5,31.5,30.00,West,259,3.0,4.0,37,0.00,,---,0.00,VWS V14.01,2013-04-12 16:25:00,
2013-04-12 10:30:00,57.2,31.2,30.00,WSW,257,7.0,7.0,37,0.00,,---,0.00,VWS V14.01,2013-04-12 16:30:00,
2013-04-12 10:35:00,57.4,31.4,30.00,WNW,288,1.0,4.0,37,0.00,,---,0.00,VWS V14.01,2013-04-12 16:35:00,
2013-04-12 10:40:00,58.0,31.2,29.99,SW,226,1.0,7.0,36,0.00,,---,0.00,VWS V14.01,2013-04-12 16:40:00,
2013-04-12 10:45:00,57.9,31.1,29.99,WSW,255,0.0,4.0,36,0.00,,---,0.00,VWS V14.01,2013-04-12 16:45:00,
2013-04-12 10:50:00,58.4,32.2,29.99,SE,125,5.0,5.0,37,0.00,,---,0.00,VWS V14.01,2013-04-12 16:50:00,
2013-04-12 10:55:00,59.1,32.2,29.99,WNW,299,0.0,9.0,36,0.00,,---,0.00,VWS V14.01,2013-04-12 16:55:00,
2013-04-12 11:00:00,59.1,31.5,29.99,SW,224,1.0,9.0,35,0.00,,---,0.00,VWS V14.01,2013-04-12 17:00:00,
2013-04-12 11:05:00,59.2,30.9,29.99,ESE,105,0.0,4.0,34,0.00,,---,0.00,VWS V14.01,2013-04-12 17:05:00,
2013-04-12 11:10:00,59.5,30.4,29.99,WNW,285,0.0,4.0,33,0.00,,---,0.00,VWS V14.01,2013-04-12 17:10:00,
2013-04-12 11:15:00,60.0,30.8,29.98,West,269,2.0,5.0,33,0.00,,---,0.00,VWS V14.01,2013-04-12 17:15:00,
2013-04-12 11:20:00,60.5,30.5,29.98,East,99,1.0,5.0,32,0.00,,---,0.00,VWS V14.01,2013-04-12 17:20:00,
2013-04-12 11:25:00,60.8,31.5,29.98,WSW,250,3.0,5.0,33,0.00,,---,0.00,VWS V14.01,2013-04-12 17:25:00,
2013-04-12 11:30:00,61.3,32.0,29.98,West,278,2.0,5.0,33,0.00,,---,0.00,VWS V14.01,2013-04-12 17:30:00,
2013-04-12 11:35:00,61.1,31.0,29.98,WNW,284,1.0,5.0,32,0.00,,---,0.00,VWS V14.01,2013-04-12 17:35:00,
2013-04-12 11:41:00,60.9,30.1,29.98,West,273,0.0,0.0,31,0.00,,---,0.00,VWS V14.01,2013-04-12 17:41:00,
2013-04-12 11:46:00,59.5,31.1,29.98,NW,307,3.0,6.0,34,0.00,,---,0.00,VWS V14.01,2013-04-12 17:46:00,
2013-04-12 11:51:00,60.5,29.7,29.98,ESE,117,1.0,6.0,31,0.00,,---,0.00,VWS V14.01,2013-04-12 17:51:00,
2013-04-12 11:56:00,60.3,29.6,29.97,West,267,1.0,5.0,31,0.00,,---,0.00,VWS V14.01,2013-04-12 17:56:00,
2013-04-12 12:01:00,60.8,31.5,29.97,ESE,123,1.0,1.0,33,0.00,,---,0.00,VWS V14.01,2013-04-12 18:01:00,
2013-04-12 12:06:00,61.3,31.2,29.97,West,263,0.0,5.0,32,0.00,,---,0.00,VWS V14.01,2013-04-12 18:06:00,
2013-04-12 12:11:00,61.1,29.5,29.96,WNW,291,2.0,3.0,30,0.00,,---,0.00,VWS V14.01,2013-04-12 18:11:00,
2013-04-12 12:16:00,59.9,30.0,29.96,WNW,291,2.0,4.0,32,0.00,,---,0.00,VWS V14.01,2013-04-12 18:16:00,
2013-04-12 12:21:00,59.9,30.0,29.96,East,92,0.0,1.0,32,0.00,,---,0.00,VWS V14.01,2013-04-12 18:21:00,
2013-04-12 12:27:00,59.8,29.1,29.96,ESE,120,2.0,3.0,31,0.00,,---,0.00,VWS V14.01,2013-04-12 18:27:00,
2013-04-12 13:26:00,64.6,29.9,29.93,ENE,77,1.0,2.0,27,0.00,,---,0.00,VWS V14.01,2013-04-12 19:26:00,
2013-04-12 13:27:00,64.8,30.1,29.93,ESE,123,1.0,2.0,27,0.00,,---,0.00,VWS V14.01,2013-04-12 19:27:00,
2013-04-12 13:32:00,65.0,28.4,29.92,ENE,63,1.0,5.0,25,0.00,,---,0.00,VWS V14.01,2013-04-12 19:32:00,
2013-04-12 13:37:00,65.9,31.0,29.92,ESE,107,1.0,5.0,27,0.00,,---,0.00,VWS V14.01,2013-04-12 19:37:00,
2013-04-12 13:42:00,65.9,30.1,29.92,East,96,2.0,4.0,26,0.00,,---,0.00,VWS V14.01,2013-04-12 19:42:00,
2013-04-12 13:47:00,66.2,30.3,29.92,West,266,1.0,5.0,26,0.00,,---,0.00,VWS V14.01,2013-04-12 19:47:00,
2013-04-12 13:52:00,65.7,29.0,29.92,ENE,64,2.0,3.0,25,0.00,,---,0.00,VWS V14.01,2013-04-12 19:52:00,
2013-04-12 13:57:00,66.1,29.3,29.92,North,8,0.0,6.0,25,0.00,,---,0.00,VWS V14.01,2013-04-12 19:57:00,
2013-04-12 14:02:00,66.2,29.4,29.91,West,264,2.0,5.0,25,0.00,,---,0.00,VWS V14.01,2013-04-12 20:02:00,
2013-04-12 14:07:00,66.3,31.4,29.91,East,101,0.0,5.0,27,0.00,,---,0.00,VWS V14.01,2013-04-12 20:07:00,
2013-04-12 14:12:00,67.2,30.2,29.91,West,276,3.0,3.0,25,0.00,,---,0.00,VWS V14.01,2013-04-12 20:12:00,
2013-04-12 14:17:00,67.0,31.0,29.91,WSW,242,2.0,6.0,26,0.00,,---,0.00,VWS V14.01,2013-04-12 20:17:00,
2013-04-12 14:22:00,66.6,28.7,29.90,WNW,300,2.0,4.0,24,0.00,,---,0.00,VWS V14.01,2013-04-12 20:22:00,
2013-04-12 14:27:00,66.8,30.8,29.90,SW,218,0.0,4.0,26,0.00,,---,0.00,VWS V14.01,2013-04-12 20:27:00,
2013-04-12 14:32:00,67.3,28.3,29.90,SE,131,4.0,6.0,23,0.00,,---,0.00,VWS V14.01,2013-04-12 20:32:00,
2013-04-12 14:37:00,65.6,28.9,29.89,ESE,115,0.0,8.0,25,0.00,,---,0.00,VWS V14.01,2013-04-12 20:37:00,
2013-04-12 14:42:00,67.0,29.0,29.89,SE,138,2.0,3.0,24,0.00,,---,0.00,VWS V14.01,2013-04-12 20:42:00,
2013-04-12 14:47:00,66.4,29.5,29.89,ESE,120,5.0,6.0,25,0.00,,---,0.00,VWS V14.01,2013-04-12 20:47:00,
2013-04-12 14:52:00,66.4,28.5,29.89,ESE,120,0.0,4.0,24,0.00,,---,0.00,VWS V14.01,2013-04-12 20:52:00,
2013-04-12 14:57:00,66.9,29.0,29.88,NW,323,0.0,4.0,24,0.00,,---,0.00,VWS V14.01,2013-04-12 20:57:00,
2013-04-12 15:02:00,66.8,28.9,29.88,SE,124,0.0,1.0,24,0.00,,---,0.00,VWS V14.01,2013-04-12 21:02:00,
2013-04-12 15:07:00,66.6,26.6,29.88,NNW,327,1.0,6.0,22,0.00,,---,0.00,VWS V14.01,2013-04-12 21:07:00,
2013-04-12 15:12:00,66.8,27.8,29.88,West,266,0.0,4.0,23,0.00,,---,0.00,VWS V14.01,2013-04-12 21:12:00,
2013-04-12 15:17:00,66.8,26.8,29.88,East,101,1.0,8.0,22,0.00,,---,0.00,VWS V14.01,2013-04-12 21:17:00,
2013-04-12 15:22:00,67.2,26.0,29.87,ENE,70,0.0,3.0,21,0.00,,---,0.00,VWS V14.01,2013-04-12 21:22:00,
2013-04-12 15:27:00,67.5,27.4,29.87,ESE,106,2.0,3.0,22,0.00,,---,0.00,VWS V14.01,2013-04-12 21:27:00,
2013-04-12 15:32:00,68.1,26.7,29.87,West,264,3.0,5.0,21,0.00,,---,0.00,VWS V14.01,2013-04-12 21:32:00,
2013-04-12 15:37:00,67.9,25.4,29.87,NW,304,1.0,5.0,20,0.00,,---,0.00,VWS V14.01,2013-04-12 21:37:00,
2013-04-12 15:42:00,67.7,26.4,29.86,ENE,66,0.0,4.0,21,0.00,,---,0.00,VWS V14.01,2013-04-12 21:42:00,
2013-04-12 15:47:00,67.3,24.9,29.87,WSW,256,4.0,6.0,20,0.00,,---,0.00,VWS V14.01,2013-04-12 21:47:00,
2013-04-12 15:52:00,65.6,24.6,29.87,WSW,255,0.0,6.0,21,0.00,,---,0.00,VWS V14.01,2013-04-12 21:52:00,
2013-04-12 15:57:00,65.0,25.3,29.86,West,281,3.0,6.0,22,0.00,,---,0.00,VWS V14.01,2013-04-12 21:57:00,
2013-04-12 16:02:00,64.8,26.2,29.87,West,264,1.0,1.0,23,0.00,,---,0.00,VWS V14.01,2013-04-12 22:02:00,
2013-04-12 16:07:00,64.9,25.2,29.86,West,277,1.0,5.0,22,0.00,,---,0.00,VWS V14.01,2013-04-12 22:07:00,
2013-04-12 16:12:00,64.5,25.9,29.86,SW,233,0.0,1.0,23,0.00,,---,0.00,VWS V14.01,2013-04-12 22:12:00,
2013-04-12 16:17:00,64.6,24.9,29.86,WSW,252,0.0,2.0,22,0.00,,---,0.00,VWS V14.01,2013-04-12 22:17:00,
2013-04-12 16:22:00,64.6,26.0,29.86,SE,141,0.0,1.0,23,0.00,,---,0.00,VWS V14.01,2013-04-12 22:22:00,
2013-04-12 16:27:00,64.3,24.7,29.86,SE,141,0.0,1.0,22,0.00,,---,0.00,VWS V14.01,2013-04-12 22:27:00,
2013-04-12 16:32:00,64.5,24.8,29.86,WNW,284,1.0,3.0,22,0.00,,---,0.00,VWS V14.01,2013-04-12 22:32:00,
2013-04-12 16:37:00,65.0,25.3,29.86,ENE,77,0.0,3.0,22,0.00,,---,0.00,VWS V14.01,2013-04-12 22:37:00,
2013-04-12 16:42:00,65.6,25.8,29.85,ESE,118,0.0,3.0,22,0.00,,---,0.00,VWS V14.01,2013-04-12 22:42:00,
2013-04-12 16:47:00,66.2,24.0,29.85,East,85,1.0,3.0,20,0.00,,---,0.00,VWS V14.01,2013-04-12 22:47:00,
2013-04-12 16:52:00,66.7,24.4,29.85,West,277,0.0,3.0,20,0.00,,---,0.00,VWS V14.01,2013-04-12 22:52:00,
2013-04-12 16:57:00,66.7,23.2,29.85,WSW,248,0.0,4.0,19,0.00,,---,0.00,VWS V14.01,2013-04-12 22:57:00,
2013-04-12 17:02:00,66.1,22.7,29.85,West,263,0.0,1.0,19,0.00,,---,0.00,VWS V14.01,2013-04-12 23:02:00,
2013-04-12 17:07:00,65.4,24.5,29.85,SSW,208,0.0,5.0,21,0.00,,---,0.00,VWS V14.01,2013-04-12 23:07:00,
2013-04-12 17:12:00,66.1,26.2,29.85,WNW,291,0.0,1.0,22,0.00,,---,0.00,VWS V14.01,2013-04-12 23:12:00,
2013-04-12 17:17:00,66.1,25.1,29.85,East,101,0.0,3.0,21,0.00,,---,0.00,VWS V14.01,2013-04-12 23:17:00,
2013-04-12 17:22:00,65.6,24.6,29.84,ESE,117,0.0,3.0,21,0.00,,---,0.00,VWS V14.01,2013-04-12 23:22:00,
2013-04-12 17:27:00,64.9,25.2,29.84,ESE,114,2.0,4.0,22,0.00,,---,0.00,VWS V14.01,2013-04-12 23:27:00,
2013-04-12 17:32:00,63.9,24.3,29.84,WSW,238,0.0,2.0,22,0.00,,---,0.00,VWS V14.01,2013-04-12 23:32:00,
2013-04-12 17:37:00,63.3,23.8,29.84,East,98,0.0,6.0,22,0.00,,---,0.00,VWS V14.01,2013-04-12 23:37:00,
2013-04-12 17:42:00,63.2,24.8,29.84,ESE,105,4.0,6.0,23,0.00,,---,0.00,VWS V14.01,2013-04-12 23:42:00,
2013-04-12 17:47:00,63.1,24.7,29.84,ESE,103,0.0,6.0,23,0.00,,---,0.00,VWS V14.01,2013-04-12 23:47:00,
2013-04-12 17:52:00,62.8,24.5,29.84,ENE,58,2.0,5.0,23,0.00,,---,0.00,VWS V14.01,2013-04-12 23:52:00,
2013-04-12 17:57:00,62.7,24.4,29.84,SE,133,3.0,9.0,23,0.00,,---,0.00,VWS V14.01,2013-04-12 23:57:00,
2013-04-12 18:02:00,62.5,24.2,29.84,SE,131,2.0,3.0,23,0.00,,---,0.00,VWS V14.01,2013-04-13 00:02:00,
2013-04-12 18:07:00,62.5,24.2,29.84,ESE,120,2.0,4.0,23,0.00,,---,0.00,VWS V14.01,2013-04-13 00:07:00,
2013-04-12 18:12:00,62.6,23.2,29.84,SE,127,5.0,5.0,22,0.00,,---,0.00,VWS V14.01,2013-04-13 00:12:00,
2013-04-12 18:17:00,62.9,22.4,29.84,ESE,107,0.0,5.0,21,0.00,,---,0.00,VWS V14.01,2013-04-13 00:17:00,
2013-04-12 18:22:00,63.3,22.7,29.84,ENE,63,1.0,4.0,21,0.00,,---,0.00,VWS V14.01,2013-04-13 00:22:00,
2013-04-12 18:27:00,63.8,23.1,29.84,ESE,120,2.0,4.0,21,0.00,,---,0.00,VWS V14.01,2013-04-13 00:27:00,
2013-04-12 18:32:00,64.2,23.5,29.85,ESE,117,0.0,2.0,21,0.00,,---,0.00,VWS V14.01,2013-04-13 00:32:00,
2013-04-12 18:37:00,64.2,22.3,29.85,ESE,117,1.0,8.0,20,0.00,,---,0.00,VWS V14.01,2013-04-13 00:37:00,
2013-04-12 18:42:00,63.9,22.1,29.85,ESE,105,1.0,4.0,20,0.00,,---,0.00,VWS V14.01,2013-04-13 00:42:00,
2013-04-12 18:47:00,64.0,22.1,29.84,SE,144,0.0,4.0,20,0.00,,---,0.00,VWS V14.01,2013-04-13 00:47:00,
2013-04-12 18:52:00,64.2,23.5,29.85,WSW,255,1.0,1.0,21,0.00,,---,0.00,VWS V14.01,2013-04-13 00:52:00,
2013-04-12 18:57:00,64.3,22.4,29.84,ESE,117,1.0,3.0,20,0.00,,---,0.00,VWS V14.01,2013-04-13 00:57:00,
2013-04-12 19:02:00,64.3,22.4,29.84,South,177,0.0,0.0,20,0.00,,---,0.00,VWS V14.01,2013-04-13 01:02:00,
2013-04-12 19:07:00,64.3,22.4,29.85,WSW,252,0.0,1.0,20,0.00,,---,0.00,VWS V14.01,2013-04-13 01:07:00,
2013-04-12 19:12:00,64.1,22.2,29.85,WSW,252,0.0,0.0,20,0.00,,---,0.00,VWS V14.01,2013-04-13 01:12:00,
2013-04-12 19:17:00,63.7,21.9,29.85,NE,51,0.0,6.0,20,0.00,,---,0.00,VWS V14.01,2013-04-13 01:17:00,
2013-04-12 19:22:00,63.3,21.6,29.85,NNE,32,0.0,1.0,20,0.00,,---,0.00,VWS V14.01,2013-04-13 01:22:00,
2013-04-12 19:27:00,62.9,20.0,29.85,West,276,4.0,5.0,19,0.00,,---,0.00,VWS V14.01,2013-04-13 01:27:00,
2013-04-12 19:32:00,62.6,19.8,29.85,WNW,287,1.0,5.0,19,0.00,,---,0.00,VWS V14.01,2013-04-13 01:32:00,
2013-04-12 19:37:00,62.1,20.6,29.85,WNW,291,0.0,5.0,20,0.00,,---,0.00,VWS V14.01,2013-04-13 01:37:00,
2013-04-12 19:42:00,61.6,20.2,29.85,WNW,291,0.0,2.0,20,0.00,,---,0.00,VWS V14.01,2013-04-13 01:42:00,
2013-04-12 19:47:00,61.1,19.8,29.86,WNW,291,0.0,2.0,20,0.00,,---,0.00,VWS V14.01,2013-04-13 01:47:00,
2013-04-12 19:52:00,60.5,20.4,29.86,WNW,297,0.0,2.0,21,0.00,,---,0.00,VWS V14.01,2013-04-13 01:52:00,
2013-04-12 19:57:00,59.9,19.9,29.86,WNW,299,1.0,2.0,21,0.00,,---,0.00,VWS V14.01,2013-04-13 01:57:00,
2013-04-12 20:02:00,59.4,20.6,29.86,West,271,0.0,0.0,22,0.00,,---,0.00,VWS V14.01,2013-04-13 02:02:00,
2013-04-12 20:07:00,58.9,20.1,29.87,West,271,0.0,1.0,22,0.00,,---,0.00,VWS V14.01,2013-04-13 02:07:00,
2013-04-12 20:12:00,58.2,20.6,29.87,West,271,0.0,0.0,23,0.00,,---,0.00,VWS V14.01,2013-04-13 02:12:00,
2013-04-12 20:17:00,57.4,19.9,29.87,West,271,0.0,0.0,23,0.00,,---,0.00,VWS V14.01,2013-04-13 02:17:00,
2013-04-12 20:22:00,56.9,20.5,29.88,West,271,0.0,0.0,24,0.00,,---,0.00,VWS V14.01,2013-04-13 02:22:00,
2013-04-12 20:27:00,56.1,19.8,29.88,West,271,0.0,0.0,24,0.00,,---,0.00,VWS V14.01,2013-04-13 02:27:00,
2013-04-12 20:32:00,55.3,20.1,29.88,West,271,0.0,0.0,25,0.00,,---,0.00,VWS V14.01,2013-04-13 02:32:00,
2013-04-12 20:37:00,54.6,20.4,29.88,West,271,0.0,0.0,26,0.00,,---,0.00,VWS V14.01,2013-04-13 02:37:00,
2013-04-12 20:42:00,53.9,19.8,29.89,West,271,0.0,0.0,26,0.00,,---,0.00,VWS V14.01,2013-04-13 02:42:00,
2013-04-12 20:47:00,53.2,19.2,29.89,West,271,0.0,0.0,26,0.00,,---,0.00,VWS V14.01,2013-04-13 02:47:00,
2013-04-12 20:52:00,52.7,19.7,29.89,West,271,0.0,1.0,27,0.00,,---,0.00,VWS V14.01,2013-04-13 02:52:00,
2013-04-12 20:57:00,52.3,19.3,29.90,West,271,0.0,1.0,27,0.00,,---,0.00,VWS V14.01,2013-04-13 02:57:00,
2013-04-12 21:02:00,51.8,18.9,29.90,West,271,0.0,0.0,27,0.00,,---,0.00,VWS V14.01,2013-04-13 03:02:00,
2013-04-12 21:08:00,51.2,19.2,29.91,West,271,0.0,0.0,28,0.00,,---,0.00,VWS V14.01,2013-04-13 03:08:00,
2013-04-12 21:13:00,50.8,18.9,29.91,West,271,0.0,0.0,28,0.00,,---,0.00,VWS V14.01,2013-04-13 03:13:00,
2013-04-12 21:18:00,50.5,18.6,29.91,West,271,0.0,0.0,28,0.00,,---,0.00,VWS V14.01,2013-04-13 03:18:00,
2013-04-12 21:23:00,50.1,19.1,29.92,West,271,0.0,0.0,29,0.00,,---,0.00,VWS V14.01,2013-04-13 03:23:00,
2013-04-12 21:28:00,49.9,18.9,29.92,West,271,0.0,0.0,29,0.00,,---,0.00,VWS V14.01,2013-04-13 03:28:00,
2013-04-12 21:33:00,49.6,19.5,29.92,West,271,0.0,0.0,30,0.00,,---,0.00,VWS V14.01,2013-04-13 03:33:00,
2013-04-12 21:38:00,49.6,19.5,29.92,West,271,0.0,0.0,30,0.00,,---,0.00,VWS V14.01,2013-04-13 03:38:00,
2013-04-12 21:43:00,49.4,19.3,29.93,West,271,0.0,0.0,30,0.00,,---,0.00,VWS V14.01,2013-04-13 03:43:00,
2013-04-12 21:48:00,49.5,19.4,29.93,West,271,0.0,0.0,30,0.00,,---,0.00,VWS V14.01,2013-04-13 03:48:00,
2013-04-12 21:53:00,50.1,19.1,29.93,West,271,0.0,1.0,29,0.00,,---,0.00,VWS V14.01,2013-04-13 03:53:00,
2013-04-12 21:58:00,50.2,19.2,29.94,West,271,0.0,1.0,29,0.00,,---,0.00,VWS V14.01,2013-04-13 03:58:00,
2013-04-12 22:00:00,50.3,19.3,29.94,West,271,0.0,1.0,29,0.00,,---,0.00,VWS V14.01,2013-04-13 04:00:00,
2013-04-12 22:05:00,50.3,20.1,29.94,West,271,0.0,0.0,30,0.00,,---,0.00,VWS V14.01,2013-04-13 04:05:00,
2013-04-12 22:10:00,50.6,21.1,29.94,NNW,327,0.0,2.0,31,0.00,,---,0.00,VWS V14.01,2013-04-13 04:10:00,
2013-04-12 22:15:00,51.0,20.7,29.94,NW,320,0.0,0.0,30,0.00,,---,0.00,VWS V14.01,2013-04-13 04:15:00,
2013-04-12 22:20:00,51.2,20.9,29.95,ENE,64,0.0,1.0,30,0.00,,---,0.00,VWS V14.01,2013-04-13 04:20:00,
2013-04-12 22:25:00,51.1,19.1,29.95,ENE,62,1.0,1.0,28,0.00,,---,0.00,VWS V14.01,2013-04-13 04:25:00,
2013-04-12 22:30:00,50.8,19.7,29.95,ENE,66,0.0,1.0,29,0.00,,---,0.00,VWS V14.01,2013-04-13 04:30:00,
2013-04-12 22:35:00,49.9,19.7,29.95,ENE,67,0.0,0.0,30,0.00,,---,0.00,VWS V14.01,2013-04-13 04:35:00,
2013-04-12 22:40:00,49.4,20.0,29.96,ENE,67,0.0,0.0,31,0.00,,---,0.00,VWS V14.01,2013-04-13 04:40:00,
2013-04-12 22:45:00,48.9,19.6,29.96,ENE,65,0.0,0.0,31,0.00,,---,0.00,VWS V14.01,2013-04-13 04:45:00,
2013-04-12 22:50:00,48.8,19.5,29.96,East,91,0.0,1.0,31,0.00,,---,0.00,VWS V14.01,2013-04-13 04:50:00,
2013-04-12 22:55:00,48.7,20.2,29.96,East,91,0.0,0.0,32,0.00,,---,0.00,VWS V14.01,2013-04-13 04:55:00,
2013-04-12 23:00:00,48.3,19.8,29.96,East,91,0.0,0.0,32,0.00,,---,0.00,VWS V14.01,2013-04-13 05:00:00,
2013-04-12 23:05:00,47.8,20.1,29.96,East,91,0.0,0.0,33,0.00,,---,0.00,VWS V14.01,2013-04-13 05:05:00,
2013-04-12 23:10:00,47.3,19.7,29.96,East,90,0.0,0.0,33,0.00,,---,0.00,VWS V14.01,2013-04-13 05:10:00,
2013-04-12 23:15:00,46.8,19.9,29.97,SE,130,1.0,3.0,34,0.00,,---,0.00,VWS V14.01,2013-04-13 05:15:00,
2013-04-12 23:20:00,46.3,20.2,29.97,SE,124,0.0,3.0,35,0.00,,---,0.00,VWS V14.01,2013-04-13 05:20:00,
2013-04-12 23:25:00,45.9,19.8,29.97,SE,124,0.0,0.0,35,0.00,,---,0.00,VWS V14.01,2013-04-13 05:25:00,
2013-04-12 23:30:00,45.5,20.1,29.97,SE,124,0.0,0.0,36,0.00,,---,0.00,VWS V14.01,2013-04-13 05:30:00,
2013-04-12 23:35:00,45.0,19.7,29.97,ESE,113,1.0,1.0,36,0.00,,---,0.00,VWS V14.01,2013-04-13 05:35:00,
2013-04-12 23:40:00,44.9,19.6,29.97,ENE,70,0.0,1.0,36,0.00,,---,0.00,VWS V14.01,2013-04-13 05:40:00,
2013-04-12 23:45:00,44.7,19.4,29.97,ENE,71,0.0,0.0,36,0.00,,---,0.00,VWS V14.01,2013-04-13 05:45:00,
2013-04-12 23:50:00,44.6,20.0,29.97,ENE,71,0.0,0.0,37,0.00,,---,0.00,VWS V14.01,2013-04-13 05:50:00,
2013-04-12 23:55:00,44.6,20.0,29.97,ENE,71,0.0,0.0,37,0.00,,---,0.00,VWS V14.01,2013-04-13 05:55:00,